EDT,Max TemperatureF,Mean TemperatureF,Min TemperatureF,Max Dew PointF,MeanDew PointF,Min DewpointF,Max Humidity, Mean Humidity, Min Humidity, Max Sea Level PressureIn, Mean Sea Level PressureIn, Min Sea Level PressureIn, Max VisibilityMiles, Mean VisibilityMiles, Min VisibilityMiles, Max Wind SpeedMPH, Mean Wind SpeedMPH, Max Gust SpeedMPH,PrecipitationIn, CloudCover, Events, WindDirDegrees
2013-3-1,37,35,32,34,32,30,100,95,89,30.02,29.98,29.94,10,6,1,12,6,16,0.06,8,Snow,307
2013-3-2,32,29,26,29,24,21,92,84,75,30.12,30.04,29.98,10,8,2,14,9,18,0.01,8,Snow,345
2013-3-3,34,29,23,25,22,17,100,77,54,30.12,30.09,30.05,10,7,1,15,6,20,0.02,7,Snow,303
2013-3-4,45,33,21,24,20,1,100,69,37,30.20,30.10,29.97,10,10,7,15,7,20,T,3,,133
2013-3-5,46,38,29,45,37,24,96,74,51,29.96,29.74,29.56,10,5,1,35,11,47,0.75,8,Rain-Snow,192
2013-3-6,33,31,29,28,27,25,92,85,78,30.30,29.93,29.76,10,5,1,26,14,35,0.03,8,Snow,289
2013-3-7,36,34,31,29,27,24,92,78,64,30.40,30.36,30.28,10,9,5,9,5,12,T,8,,319
2013-3-8,47,38,29,30,27,24,78,64,49,30.47,30.41,30.36,10,10,8,14,7,17,0.00,2,,45
2013-3-9,64,48,31,34,29,25,78,53,27,30.35,30.22,30.07,10,10,10,20,8,22,0.00,2,,129
2013-3-10,71,61,51,34,32,30,44,34,23,30.07,29.98,29.86,10,10,10,22,13,28,T,1,Rain,173
2013-3-11,63,51,38,54,44,34,96,69,42,29.91,29.79,29.67,10,7,1,28,12,33,0.73,8,Rain,223
2013-3-12,49,42,35,33,30,26,85,67,49,30.08,30.00,29.91,10,10,9,21,10,26,0.00,6,,254
2013-3-13,38,32,26,31,23,17,82,65,47,30.38,30.19,30.06,10,9,1,25,13,33,0.01,7,Snow,285
2013-3-14,47,34,21,28,19,16,84,58,31,30.40,30.33,30.24,10,10,10,15,6,18,0.00,2,,244
2013-3-15,60,46,32,41,34,27,82,63,44,30.21,30.01,29.80,10,10,10,15,8,21,0.00,1,,184
2013-3-16,72,58,44,49,45,41,77,61,44,29.98,29.77,29.68,10,9,6,25,15,32,0.01,3,Rain,265
2013-3-17,44,40,35,41,35,33,92,86,79,30.10,30.03,29.95,10,5,2,20,14,24,0.59,8,Rain,49
2013-3-18,57,47,37,54,43,34,100,85,70,29.91,29.76,29.66,10,8,2,29,13,47,1.71,8,Rain-Thunderstorm,213
2013-3-19,48,41,34,34,24,11,89,56,23,30.17,30.05,29.89,10,10,9,29,13,37,0.00,0,,267
2013-3-20,48,35,22,23,17,10,68,51,34,30.16,30.06,29.97,10,10,10,25,12,36,0.00,2,,262
2013-3-21,34,27,19,18,13,10,73,56,38,30.07,30.03,29.98,10,8,1,20,5,24,T,4,Snow,297
2013-3-22,45,32,19,20,15,12,77,54,31,30.12,30.06,30.02,10,10,10,9,3,12,0.00,3,,199
2013-3-23,54,45,36,27,24,20,59,45,30,30.05,29.99,29.83,10,10,10,18,6,22,0.00,5,,65
2013-3-24,43,39,35,38,34,23,100,73,45,29.83,29.54,29.37,10,5,1,24,11,33,1.13,8,Rain-Thunderstorm,57
2013-3-25,36,34,31,34,30,27,92,85,78,29.99,29.67,29.47,10,3,0,26,15,37,0.12,8,Fog-Rain-Snow,261
2013-3-26,41,37,32,32,30,25,92,76,59,30.28,30.12,30.00,10,7,2,18,9,23,0.01,8,Snow,293
2013-3-27,44,36,28,28,24,21,78,62,45,30.36,30.32,30.28,10,10,10,14,5,17,0.00,6,,275
2013-3-28,51,39,27,28,24,22,85,61,36,30.39,30.34,30.31,10,10,8,10,3,15,0.00,1,,300
2013-3-29,56,43,29,39,30,24,83,58,32,30.34,30.29,30.23,10,10,10,15,7,18,0.00,2,,185
2013-3-30,61,45,29,41,35,28,100,68,35,30.26,30.18,29.96,10,4,0,14,5,18,0.00,0,Fog-Rain,154
2013-3-31,60,53,45,48,45,39,100,77,53,29.93,29.86,29.81,10,6,0,15,7,20,0.17,7,Fog-Rain,245